Time,TemperatureF,DewpointF,PressureIn,WindDirection,WindDirectionDegrees,WindSpeedMPH,WindSpeedGustMPH,Humidity,HourlyPrecipIn,Conditions,Clouds,dailyrainin,SoftwareType,DateUTC
2013-01-03 00:12:00,14.0,13.5,30.13,ESE,112,0.0,-999.0,98,-99.99,,,0.00,Acu-Link.com,2013-01-03 05:12:00,
2013-01-03 00:28:00,13.6,13.2,30.13,ESE,112,4.3,-999.0,98,-99.99,,,0.00,Acu-Link.com,2013-01-03 05:28:00,
2013-01-03 00:43:00,13.1,12.6,30.11,ESE,112,0.0,-999.0,98,-99.99,,,0.00,Acu-Link.com,2013-01-03 05:43:00,
2013-01-03 00:58:00,12.9,12.5,30.11,SE,135,0.0,-999.0,98,-99.99,,,0.00,Acu-Link.com,2013-01-03 05:58:00,
2013-01-03 01:13:00,12.9,12.5,30.10,ESE,112,0.0,-999.0,98,-99.99,,,0.00,Acu-Link.com,2013-01-03 06:13:00,
2013-01-03 01:28:00,12.9,12.5,30.11,SE,135,0.0,-999.0,98,-99.99,,,0.00,Acu-Link.com,2013-01-03 06:28:00,
2013-01-03 01:43:00,12.9,12.5,30.11,ESE,112,0.0,-999.0,98,-99.99,,,0.00,Acu-Link.com,2013-01-03 06:43:00,
2013-01-03 01:59:00,12.9,12.5,30.10,ESE,112,0.0,-999.0,98,-99.99,,,0.00,Acu-Link.com,2013-01-03 06:59:00,
2013-01-03 02:14:00,12.9,12.5,30.10,SE,135,0.0,-999.0,98,-99.99,,,0.00,Acu-Link.com,2013-01-03 07:14:00,
2013-01-03 02:29:00,12.9,12.5,30.10,ESE,112,0.0,-999.0,98,-99.99,,,0.00,Acu-Link.com,2013-01-03 07:29:00,
2013-01-03 02:44:00,12.9,12.5,30.11,SSE,157,0.0,-999.0,98,-99.99,,,0.00,Acu-Link.com,2013-01-03 07:44:00,
2013-01-03 02:59:00,12.9,12.5,30.10,SSE,157,0.0,-999.0,98,-99.99,,,0.00,Acu-Link.com,2013-01-03 07:59:00,
2013-01-03 03:15:00,13.3,12.8,30.10,SSW,202,4.3,-999.0,98,-99.99,,,0.00,Acu-Link.com,2013-01-03 08:15:00,
2013-01-03 03:30:00,13.6,13.2,30.09,SSW,202,2.7,-999.0,98,-99.99,,,0.00,Acu-Link.com,2013-01-03 08:30:00,
2013-01-03 03:45:00,14.2,13.7,30.09,SSW,202,2.7,-999.0,98,-99.99,,,0.00,Acu-Link.com,2013-01-03 08:45:00,
2013-01-03 04:00:00,14.2,13.7,30.09,SW,225,1.1,-999.0,98,-99.99,,,0.00,Acu-Link.com,2013-01-03 09:00:00,
2013-01-03 04:15:00,14.4,13.9,30.09,SSW,202,2.7,-999.0,98,-99.99,,,0.00,Acu-Link.com,2013-01-03 09:15:00,
2013-01-03 04:31:00,14.4,13.9,30.08,South,180,0.0,-999.0,98,-99.99,,,0.00,Acu-Link.com,2013-01-03 09:31:00,
2013-01-03 04:46:00,14.5,14.1,30.07,SSW,202,2.7,-999.0,98,-99.99,,,0.00,Acu-Link.com,2013-01-03 09:46:00,
2013-01-03 05:01:00,14.7,14.3,30.07,SSW,202,0.0,-999.0,98,-99.99,,,0.00,Acu-Link.com,2013-01-03 10:01:00,
2013-01-03 05:17:00,14.5,14.1,30.07,SSW,202,0.0,-999.0,98,-99.99,,,0.00,Acu-Link.com,2013-01-03 10:17:00,
2013-01-03 05:32:00,14.9,14.4,30.07,SSW,202,0.0,-999.0,98,-99.99,,,0.00,Acu-Link.com,2013-01-03 10:32:00,
2013-01-03 05:47:00,15.6,15.2,30.07,SSE,157,0.0,-999.0,98,-99.99,,,0.00,Acu-Link.com,2013-01-03 10:47:00,
2013-01-03 06:03:00,16.3,15.9,30.08,WSW,247,0.0,-999.0,98,-99.99,,,0.00,Acu-Link.com,2013-01-03 11:03:00,
2013-01-03 06:18:00,16.9,16.4,30.08,SW,225,0.0,-999.0,98,-99.99,,,0.00,Acu-Link.com,2013-01-03 11:18:00,
2013-01-03 06:33:00,17.1,16.6,30.07,SSE,157,0.0,-999.0,98,-99.99,,,0.00,Acu-Link.com,2013-01-03 11:33:00,
2013-01-03 06:48:00,17.1,16.6,30.06,ESE,112,0.0,-999.0,98,-99.99,,,0.00,Acu-Link.com,2013-01-03 11:48:00,
2013-01-03 07:03:00,17.2,16.8,30.07,West,270,0.0,-999.0,98,-99.99,,,0.00,Acu-Link.com,2013-01-03 12:03:00,
2013-01-03 07:19:00,17.8,17.3,30.06,ESE,112,0.0,-999.0,98,-99.99,,,0.00,Acu-Link.com,2013-01-03 12:19:00,
2013-01-03 07:34:00,17.8,17.3,30.06,SSE,157,0.0,-999.0,98,-99.99,,,0.00,Acu-Link.com,2013-01-03 12:34:00,
2013-01-03 07:49:00,18.1,17.7,30.06,SE,135,0.0,-999.0,98,-99.99,,,0.00,Acu-Link.com,2013-01-03 12:49:00,
2013-01-03 08:04:00,18.5,18.0,30.06,SSW,202,0.0,-999.0,98,-99.99,,,0.00,Acu-Link.com,2013-01-03 13:04:00,
2013-01-03 08:20:00,18.9,18.4,30.06,SSW,202,0.0,-999.0,98,-99.99,,,0.00,Acu-Link.com,2013-01-03 13:20:00,
2013-01-03 08:35:00,19.0,18.6,30.06,SE,135,0.0,-999.0,98,-99.99,,,0.00,Acu-Link.com,2013-01-03 13:35:00,
2013-01-03 08:50:00,19.2,18.7,30.05,SSW,202,0.0,-999.0,98,-99.99,,,0.00,Acu-Link.com,2013-01-03 13:50:00,
2013-01-03 09:05:00,19.6,19.1,30.04,ESE,112,0.0,-999.0,98,-99.99,,,0.00,Acu-Link.com,2013-01-03 14:05:00,
2013-01-03 09:20:00,20.7,20.2,30.04,SE,135,0.0,-999.0,98,-99.99,,,0.00,Acu-Link.com,2013-01-03 14:20:00,
2013-01-03 09:35:00,21.0,20.5,30.05,South,180,3.1,-999.0,98,-99.99,,,0.00,Acu-Link.com,2013-01-03 14:35:00,
2013-01-03 09:50:00,21.4,20.9,30.05,SSW,202,0.0,-999.0,98,-99.99,,,0.00,Acu-Link.com,2013-01-03 14:50:00,
2013-01-03 10:06:00,22.1,21.6,30.05,SE,135,1.1,-999.0,98,-99.99,,,0.00,Acu-Link.com,2013-01-03 15:06:00,
2013-01-03 10:21:00,23.0,22.5,30.04,SE,135,2.2,-999.0,98,-99.99,,,0.00,Acu-Link.com,2013-01-03 15:21:00,
2013-01-03 10:36:00,22.5,22.0,30.04,SE,135,1.6,-999.0,98,-99.99,,,0.00,Acu-Link.com,2013-01-03 15:36:00,
2013-01-03 10:51:00,22.3,21.8,30.04,SSW,202,4.7,-999.0,98,-99.99,,,0.00,Acu-Link.com,2013-01-03 15:51:00,
2013-01-03 11:07:00,22.6,22.2,30.03,SSW,202,7.4,-999.0,98,-99.99,,,0.00,Acu-Link.com,2013-01-03 16:07:00,
2013-01-03 11:22:00,23.2,22.7,30.02,SSW,202,4.7,-999.0,98,-99.99,,,0.00,Acu-Link.com,2013-01-03 16:22:00,
2013-01-03 11:37:00,24.4,22.7,30.00,SW,225,8.3,-999.0,93,-99.99,,,0.00,Acu-Link.com,2013-01-03 16:37:00,
2013-01-03 11:52:00,25.2,23.9,30.00,SW,225,3.8,-999.0,95,-99.99,,,0.00,Acu-Link.com,2013-01-03 16:52:00,
2013-01-03 12:07:00,25.3,23.6,29.98,WSW,247,9.4,-999.0,93,-99.99,,,0.00,Acu-Link.com,2013-01-03 17:07:00,
2013-01-03 12:23:00,25.2,23.2,29.98,SW,225,8.9,-999.0,92,-99.99,,,0.00,Acu-Link.com,2013-01-03 17:23:00,
2013-01-03 12:38:00,25.5,23.5,29.97,WSW,247,6.3,-999.0,92,-99.99,,,0.00,Acu-Link.com,2013-01-03 17:38:00,
2013-01-03 12:53:00,26.8,25.3,29.96,SW,225,8.9,-999.0,94,-99.99,,,0.00,Acu-Link.com,2013-01-03 17:53:00,
2013-01-03 13:08:00,25.3,23.6,29.95,SSW,202,9.4,-999.0,93,-99.99,,,0.00,Acu-Link.com,2013-01-03 18:08:00,
2013-01-03 13:23:00,26.1,24.3,29.95,SSW,202,4.7,-999.0,93,-99.99,,,0.00,Acu-Link.com,2013-01-03 18:23:00,
2013-01-03 13:39:00,26.4,25.2,29.94,WNW,292,6.3,-999.0,95,-99.99,,,0.00,Acu-Link.com,2013-01-03 18:39:00,
2013-01-03 13:54:00,26.6,25.4,29.93,WSW,247,4.7,-999.0,95,-99.99,,,0.00,Acu-Link.com,2013-01-03 18:54:00,
2013-01-03 14:09:00,25.9,24.1,29.93,SW,225,11.0,-999.0,93,-99.99,,,0.00,Acu-Link.com,2013-01-03 19:09:00,
2013-01-03 15:10:00,26.2,22.9,29.92,SW,225,5.1,-999.0,87,-99.99,,,0.00,Acu-Link.com,2013-01-03 20:10:00,
2013-01-03 15:25:00,25.9,22.8,29.92,WSW,247,9.4,-999.0,88,-99.99,,,0.00,Acu-Link.com,2013-01-03 20:25:00,
2013-01-03 15:40:00,25.9,22.6,29.92,WSW,247,11.9,-999.0,87,-99.99,,,0.00,Acu-Link.com,2013-01-03 20:40:00,
2013-01-03 15:56:00,25.5,22.5,29.92,SSW,202,8.3,-999.0,88,-99.99,,,0.00,Acu-Link.com,2013-01-03 20:56:00,
2013-01-03 16:11:00,25.0,24.3,29.92,SSW,202,5.1,-999.0,97,-99.99,,,0.00,Acu-Link.com,2013-01-03 21:11:00,
2013-01-03 16:26:00,24.4,24.0,29.92,WSW,247,7.8,-999.0,98,-99.99,,,0.00,Acu-Link.com,2013-01-03 21:26:00,
2013-01-03 16:56:00,24.4,24.0,29.93,WSW,247,5.1,-999.0,98,-99.99,,,0.00,Acu-Link.com,2013-01-03 21:56:00,
2013-01-03 17:12:00,24.4,24.0,29.93,SSW,202,5.8,-999.0,98,-99.99,,,0.00,Acu-Link.com,2013-01-03 22:12:00,
2013-01-03 17:27:00,24.4,24.0,29.93,SW,225,7.8,-999.0,98,-99.99,,,0.00,Acu-Link.com,2013-01-03 22:27:00,
2013-01-03 17:42:00,24.6,24.1,29.93,West,270,6.7,-999.0,98,-99.99,,,0.00,Acu-Link.com,2013-01-03 22:42:00,
2013-01-03 17:57:00,24.6,24.1,29.94,West,270,6.3,-999.0,98,-99.99,,,0.00,Acu-Link.com,2013-01-03 22:57:00,
2013-01-03 18:12:00,24.8,24.3,29.94,SW,225,8.3,-999.0,98,-99.99,,,0.00,Acu-Link.com,2013-01-03 23:12:00,
2013-01-03 18:28:00,24.8,24.3,29.94,South,180,5.1,-999.0,98,-99.99,,,0.00,Acu-Link.com,2013-01-03 23:28:00,
2013-01-03 18:43:00,24.8,24.3,29.94,SSW,202,4.3,-999.0,98,-99.99,,,0.00,Acu-Link.com,2013-01-03 23:43:00,
2013-01-03 18:58:00,25.3,24.9,29.95,South,180,6.7,-999.0,98,-99.99,,,0.00,Acu-Link.com,2013-01-03 23:58:00,
2013-01-03 19:13:00,25.2,24.7,29.95,SW,225,4.3,-999.0,98,-99.99,,,0.00,Acu-Link.com,2013-01-04 00:13:00,
2013-01-03 19:28:00,25.3,24.9,29.95,West,270,5.1,-999.0,98,-99.99,,,0.00,Acu-Link.com,2013-01-04 00:28:00,
2013-01-03 19:44:00,25.9,25.4,29.96,West,270,7.8,-999.0,98,-99.99,,,0.00,Acu-Link.com,2013-01-04 00:44:00,
2013-01-03 19:59:00,25.9,25.4,29.96,West,270,8.3,-999.0,98,-99.99,,,0.00,Acu-Link.com,2013-01-04 00:59:00,
2013-01-03 20:14:00,25.5,25.0,29.96,West,270,11.4,-999.0,98,-99.99,,,0.00,Acu-Link.com,2013-01-04 01:14:00,
2013-01-03 20:29:00,25.3,24.9,29.96,West,270,9.4,-999.0,98,-99.99,,,0.00,Acu-Link.com,2013-01-04 01:29:00,
2013-01-03 20:44:00,25.0,24.5,29.96,ENE,67,12.5,-999.0,98,-99.99,,,0.00,Acu-Link.com,2013-01-04 01:44:00,
2013-01-03 21:00:00,24.8,24.3,29.96,West,270,8.9,-999.0,98,-99.99,,,0.00,Acu-Link.com,2013-01-04 02:00:00,
2013-01-03 21:15:00,24.1,23.6,29.96,SW,225,12.5,-999.0,98,-99.99,,,0.00,Acu-Link.com,2013-01-04 02:15:00,
2013-01-03 21:30:00,24.3,23.8,29.96,West,270,8.3,-999.0,98,-99.99,,,0.00,Acu-Link.com,2013-01-04 02:30:00,
2013-01-03 21:45:00,24.4,24.0,29.97,WSW,247,8.3,-999.0,98,-99.99,,,0.00,Acu-Link.com,2013-01-04 02:45:00,
2013-01-03 22:01:00,24.8,24.3,29.97,WNW,292,7.8,-999.0,98,-99.99,,,0.00,Acu-Link.com,2013-01-04 03:01:00,
2013-01-03 22:16:00,24.6,24.1,29.97,West,270,7.8,-999.0,98,-99.99,,,0.00,Acu-Link.com,2013-01-04 03:16:00,
2013-01-03 22:31:00,25.5,25.0,29.96,WSW,247,8.9,-999.0,98,-99.99,,,0.00,Acu-Link.com,2013-01-04 03:31:00,
2013-01-03 22:46:00,25.0,24.5,29.96,West,270,11.0,-999.0,98,-99.99,,,0.00,Acu-Link.com,2013-01-04 03:46:00,
2013-01-03 23:01:00,25.0,24.5,29.97,WSW,247,9.8,-999.0,98,-99.99,,,0.00,Acu-Link.com,2013-01-04 04:01:00,
2013-01-03 23:17:00,25.5,25.0,29.96,WSW,247,11.9,-999.0,98,-99.99,,,0.00,Acu-Link.com,2013-01-04 04:17:00,
2013-01-03 23:32:00,25.5,25.0,29.96,West,270,11.0,-999.0,98,-99.99,,,0.00,Acu-Link.com,2013-01-04 04:32:00,
2013-01-03 23:47:00,25.5,25.0,29.96,West,270,11.0,-999.0,98,-99.99,,,0.00,Acu-Link.com,2013-01-04 04:47:00,